Siloam Springs, AR

4:52 AM CDT on May 24, 2017 (GMT -0500)
Smith

Weather History for KSLG - March, 2014

Change the Weather History Date:

Friday, March 14, 2014

  Actual Average Record
Temperature  
Mean Temperature 54 °F -  
Max Temperature 68 °F 53 °F 77 °F (2012)
Min Temperature 41 °F 36 °F 26 °F (1999)
Degree Days  
Heating Degree Days 10    
Growing Degree Days 4 (Base 50)    
Moisture  
Dew Point 31 °F    
Average Humidity 41    
Maximum Humidity 58    
Minimum Humidity 30    
Precipitation  
Precipitation 0.00 in - - ()
Sea Level Pressure  
Sea Level Pressure 30.00 in    
Wind  
Wind Speed 11 mph (SW)    
Max Wind Speed 21 mph    
Max Gust Speed 26 mph    
Visibility 10 miles    
Events      
Averages and records for this station are not official NWS values.
T = Trace of Precipitation, MM = Missing Value Source: NWS Daily Summary

Daily Weather History Graph

Daily Weather History Graph

Search for Another Location

Airport or City:

Trip Planner

Search our weather history database for the weather conditions in past years. The results will help you decide how hot, cold, wet, or windy it might be!

Date:

Astronomy

Mar. 14, 2014 Rise Set
Actual Time 7:30 AM CDT 7:24 PM CDT
Civil Twilight 7:04 AM CDT 7:50 PM CDT
Nautical Twilight 6:34 AM CDT 8:20 PM CDT
Astronomical Twilight 6:04 AM CDT 8:50 PM CDT
Moon 5:49 PM CDT (3/14) 6:08 AM CDT (3/14)
Length of Visible Light 12h 45m
Length of Day
11h 54m
Waxing Gibbous, 96% of the Moon is Illuminated
Mar 14
Waxing Gibbous
Mar 16
Full
Mar 23
Last Quarter
Mar 30
New
Apr 7
First Quarter

Hourly Weather History & Observations

Time (CDT) Temp. Windchill Dew Point Humidity Pressure Visibility Wind Dir Wind Speed Gust Speed Precip Events Conditions
12:15 AM 46.4 °F 41.1 °F 24.8 °F 43% 30.03 in 10.0 mi SSW 11.5 mph - N/A   Clear
12:35 AM 46.4 °F 41.1 °F 26.6 °F 46% 30.02 in 10.0 mi South 11.5 mph - N/A   Clear
12:55 AM 46.4 °F 41.1 °F 26.6 °F 46% 30.01 in 10.0 mi South 11.5 mph - N/A   Clear
1:15 AM 46.4 °F 41.1 °F 26.6 °F 46% 30.01 in 10.0 mi SSW 11.5 mph - N/A   Clear
1:35 AM 46.4 °F 41.5 °F 24.8 °F 43% 30.01 in 10.0 mi SSW 10.4 mph - N/A   Clear
1:55 AM 46.4 °F 42.4 °F 24.8 °F 43% 30.01 in 10.0 mi SSW 8.1 mph - N/A   Clear
2:15 AM 46.4 °F 42.4 °F 24.8 °F 43% 30.01 in 10.0 mi SSW 8.1 mph - N/A   Clear
2:35 AM 44.6 °F 39.7 °F 24.8 °F 46% 30.01 in 10.0 mi SSW 9.2 mph - N/A   Clear
2:55 AM 44.6 °F 39.2 °F 24.8 °F 46% 30.01 in 10.0 mi SSW 10.4 mph - N/A   Clear
3:15 AM 42.8 °F 38.0 °F 24.8 °F 49% 30.01 in 10.0 mi SSW 8.1 mph - N/A   Clear
3:35 AM 44.6 °F 40.2 °F 26.6 °F 49% 30.00 in 10.0 mi SSW 8.1 mph - N/A   Clear
3:55 AM 41.0 °F 35.2 °F 24.8 °F 53% 30.00 in 10.0 mi SSW 9.2 mph - N/A   Clear
4:15 AM 44.6 °F 39.2 °F 26.6 °F 49% 30.00 in 10.0 mi SSW 10.4 mph - N/A   Clear
4:35 AM 44.6 °F 38.8 °F 26.6 °F 49% 29.99 in 10.0 mi SSW 11.5 mph - N/A   Clear
4:55 AM 44.6 °F 38.8 °F 26.6 °F 49% 29.99 in 10.0 mi SSW 11.5 mph - N/A   Clear
5:15 AM 46.4 °F 40.7 °F 28.4 °F 50% 29.98 in 10.0 mi SSW 12.7 mph - N/A   Clear
5:35 AM 46.4 °F 40.4 °F 26.6 °F 46% 29.98 in 10.0 mi SSW 13.8 mph 19.6 mph N/A   Clear
5:55 AM 46.4 °F 40.7 °F 26.6 °F 46% 29.99 in 10.0 mi SSW 12.7 mph - N/A   Clear
6:15 AM 46.4 °F 40.1 °F 26.6 °F 46% 29.99 in 10.0 mi SSW 15.0 mph - N/A   Clear
6:35 AM 46.4 °F 40.7 °F 26.6 °F 46% 29.98 in 10.0 mi SSW 12.7 mph - N/A   Clear
6:55 AM 48.2 °F - 28.4 °F 46% 29.97 in 10.0 mi South 12.7 mph - N/A   Clear
7:15 AM 48.2 °F - 28.4 °F 46% 29.96 in 10.0 mi SSW 18.4 mph - N/A   Clear
7:35 AM 48.2 °F - 28.4 °F 46% 29.96 in 10.0 mi SSW 18.4 mph 24.2 mph N/A   Clear
7:55 AM 50.0 °F - 28.4 °F 43% 29.96 in 10.0 mi SSW 13.8 mph - N/A   Clear
8:15 AM 50.0 °F - 28.4 °F 43% 29.98 in 10.0 mi SSW 13.8 mph 18.4 mph N/A   Partly Cloudy
8:35 AM 51.8 °F - 28.4 °F 41% 29.98 in 10.0 mi SSW 12.7 mph - N/A   Clear
8:55 AM 51.8 °F - 28.4 °F 41% 29.98 in 10.0 mi SSW 15.0 mph 19.6 mph N/A   Clear
9:15 AM 50.0 °F - 28.4 °F 43% 29.99 in 10.0 mi SSW 15.0 mph - N/A   Clear
9:35 AM 51.8 °F - 30.2 °F 44% 29.99 in 10.0 mi SSW 16.1 mph 23.0 mph N/A   Clear
9:55 AM 51.8 °F - 30.2 °F 44% 30.00 in 10.0 mi SSW 11.5 mph - N/A   Clear
10:15 AM 51.8 °F - 30.2 °F 44% 30.00 in 10.0 mi SSW 11.5 mph - N/A   Partly Cloudy
10:35 AM 53.6 °F - 33.8 °F 47% 30.01 in 10.0 mi SSW 16.1 mph - N/A   Clear
10:55 AM 53.6 °F - 32.0 °F 44% 30.02 in 10.0 mi SW 11.5 mph - N/A   Mostly Cloudy
11:15 AM 53.6 °F - 33.8 °F 47% 30.01 in 10.0 mi SW 13.8 mph - N/A   Overcast
11:35 AM 53.6 °F - 33.8 °F 47% 30.01 in 10.0 mi SSW 17.3 mph 21.9 mph N/A   Mostly Cloudy
11:55 AM 53.6 °F - 33.8 °F 47% 30.01 in 10.0 mi SSW 16.1 mph 21.9 mph N/A   Clear
12:15 PM 59.0 °F - 35.6 °F 42% 30.01 in 10.0 mi SW 17.3 mph 23.0 mph N/A   Clear
12:35 PM 60.8 °F - 35.6 °F 39% 30.01 in 10.0 mi WSW 20.7 mph 26.5 mph N/A   Clear
12:55 PM 62.6 °F - 37.4 °F 39% 30.01 in 10.0 mi WSW 16.1 mph 20.7 mph N/A   Clear
1:15 PM 62.6 °F - 35.6 °F 37% 30.01 in 10.0 mi WSW 15.0 mph 25.3 mph N/A   Clear
1:35 PM 64.4 °F - 35.6 °F 34% 30.01 in 10.0 mi WSW 17.3 mph 20.7 mph N/A   Clear
1:55 PM 64.4 °F - 35.6 °F 34% 30.00 in 10.0 mi West 10.4 mph - N/A   Clear
2:15 PM 66.2 °F - 37.4 °F 35% 29.99 in 10.0 mi WSW 15.0 mph 20.7 mph N/A   Clear
2:35 PM 66.2 °F - 35.6 °F 32% 29.99 in 10.0 mi West 12.7 mph - N/A   Clear
2:55 PM 66.2 °F - 35.6 °F 32% 29.98 in 10.0 mi WSW 9.2 mph - N/A   Clear
3:15 PM 66.2 °F - 35.6 °F 32% 29.97 in 10.0 mi SW 6.9 mph - N/A   Clear
3:35 PM 66.2 °F - 35.6 °F 32% 29.97 in 10.0 mi SW 11.5 mph - N/A   Clear
3:55 PM 68.0 °F - 35.6 °F 30% 29.96 in 10.0 mi SW 9.2 mph - N/A   Clear
4:15 PM 68.0 °F - 35.6 °F 30% 29.97 in 10.0 mi WSW 13.8 mph 18.4 mph N/A   Clear
4:35 PM 68.0 °F - 35.6 °F 30% 29.98 in 10.0 mi WSW 12.7 mph - N/A   Clear
4:55 PM 68.0 °F - 35.6 °F 30% 29.97 in 10.0 mi West 10.4 mph 16.1 mph N/A   Clear
5:15 PM 66.2 °F - 35.6 °F 32% 29.98 in 10.0 mi WNW 10.4 mph - N/A   Clear
5:35 PM 66.2 °F - 35.6 °F 32% 29.98 in 10.0 mi NW 11.5 mph - N/A   Clear
5:55 PM 66.2 °F - 33.8 °F 30% 29.98 in 10.0 mi NW 6.9 mph - N/A   Clear
6:15 PM 66.2 °F - 35.6 °F 32% 29.97 in 10.0 mi West 6.9 mph - N/A   Clear
6:35 PM 66.2 °F - 35.6 °F 32% 29.98 in 10.0 mi West 5.8 mph - N/A   Clear
6:55 PM 62.6 °F - 35.6 °F 37% 29.98 in 10.0 mi NW 5.8 mph - N/A   Clear
7:15 PM 62.6 °F - 33.8 °F 34% 29.99 in 10.0 mi West 3.5 mph - N/A   Clear
7:35 PM 60.8 °F - 33.8 °F 36% 29.99 in 10.0 mi Calm Calm - N/A   Clear
7:55 PM 57.2 °F - 33.8 °F 41% 29.99 in 10.0 mi Calm Calm - N/A   Clear
8:15 PM 59.0 °F - 32.0 °F 36% 30.00 in 10.0 mi Calm Calm - N/A   Clear
8:35 PM 55.4 °F - 30.2 °F 38% 30.01 in 10.0 mi Calm Calm - N/A   Clear
8:55 PM 59.0 °F - 32.0 °F 36% 30.01 in 10.0 mi South 3.5 mph - N/A   Clear
9:15 PM 57.2 °F - 32.0 °F 38% 30.01 in 9.0 mi SSW 3.5 mph - N/A   Clear
9:35 PM 55.4 °F - 32.0 °F 41% 30.02 in 10.0 mi South 3.5 mph - N/A   Clear
9:55 PM 55.4 °F - 32.0 °F 41% 30.02 in 10.0 mi SSW 3.5 mph - N/A   Clear
10:15 PM 55.4 °F - 33.8 °F 44% 30.03 in 10.0 mi SSE 5.8 mph - N/A   Clear
10:35 PM 53.6 °F - 33.8 °F 47% 30.03 in 10.0 mi South 3.5 mph - N/A   Clear
10:55 PM 53.6 °F - 33.8 °F 47% 30.03 in 10.0 mi Calm Calm - N/A   Clear
11:15 PM 53.6 °F - 33.8 °F 47% 30.03 in 10.0 mi South 4.6 mph - N/A   Clear
11:35 PM 53.6 °F - 35.6 °F 51% 30.03 in 10.0 mi South 3.5 mph - N/A   Clear
11:55 PM 48.2 °F - 33.8 °F 58% 30.03 in 10.0 mi South 4.6 mph - N/A   Clear